CW9888 Weather Reports


Display with metric or nautical units.
time (UTC)temp
F
wind
direction
speed
MPH
gust
MPH
rain 1hr
in
rain 24hr
in
rain mn
in
humidity
%
barometer
mb
20190123024624 48 360 1.0 2.0 0.00 0.00 0.00 86 1016.5
20190123023112 49 360 0.0 2.0 0.00 0.00 0.00 86 1016.5
20190123021531 49 360 0.0 2.0 0.00 0.00 0.00 86 1016.4
20190123020041 49 360 1.0 3.0 0.00 0.00 0.00 86 1016.4
20190123014525 49 360 0.0 1.0 0.00 0.00 0.00 86 1016.6
20190123013020 49 360 1.0 3.0 0.00 0.00 0.00 86 1016.6
20190123011529 49 360 0.0 1.0 0.00 0.00 0.00 86 1016.7
20190123010037 49 360 1.0 3.0 0.00 0.00 0.00 85 1016.6
20190123004517 50 360 0.0 3.0 0.00 0.00 0.00 85 1016.6
20190123003023 50 360 1.0 3.0 0.00 0.00 0.00 85 1016.7
20190123001831 50 360 1.0 3.0 0.00 0.00 0.00 85 1016.9
20190123000005 50 360 1.0 3.0 0.00 0.00 0.00 85 1017.0
20190122234503 50 360 1.0 3.0 0.00 0.00 0.00 85 1017.3
20190122233135 50 360 0.0 2.0 0.00 0.00 0.00 86 1017.3
20190122231716 50 360 0.0 1.0 0.00 0.00 0.00 85 1017.4
20190122230157 50 360 0.0 2.0 0.00 0.00 0.00 85 1017.4
20190122224724 51 360 1.0 3.0 0.00 0.00 0.00 85 1017.4
20190122223158 51 360 1.0 3.0 0.00 0.00 0.00 85 1017.4
20190122221656 51 360 1.0 3.0 0.00 0.00 0.00 85 1017.4
20190122220121 51 360 1.0 2.0 0.00 0.00 0.00 85 1017.4
20190122214618 51 360 0.0 2.0 0.00 0.00 0.00 85 1017.4
20190122213137 51 360 0.0 1.0 0.00 0.00 0.00 84 1017.4
20190122211614 51 360 0.0 0.0 0.00 0.00 0.00 84 1017.4
20190122210131 52 360 0.0 1.0 0.00 0.00 0.00 83 1017.4
20190122204652 52 360 0.0 1.0 0.00 0.00 0.00 83 1017.5
20190122203153 52 360 0.0 1.0 0.00 0.00 0.00 82 1017.4
20190122201652 52 360 0.0 1.0 0.00 0.00 0.00 82 1017.4
20190122200152 53 360 0.0 2.0 0.00 0.00 0.00 82 1017.4
20190122194640 53 360 0.0 1.0 0.00 0.00 0.00 82 1017.3
20190122193124 53 360 0.0 1.0 0.00 0.00 0.00 81 1017.2
20190122191620 53 360 0.0 0.0 0.00 0.00 0.00 79 1017.3
20190122190116 54 360 0.0 1.0 0.00 0.00 0.00 79 1017.1
20190122184640 54 360 0.0 0.0 0.00 0.00 0.00 78 1017.0
20190122183130 55 360 0.0 1.0 0.00 0.00 0.00 77 1017.0
20190122181643 56 360 0.0 0.0 0.00 0.00 0.00 75 1016.9
20190122180151 57 360 0.0 0.0 0.00 0.00 0.00 75 1016.8
20190122174616 57 360 0.0 0.0 0.00 0.00 0.00 74 1016.8
20190122173118 58 360 0.0 0.0 0.00 0.00 0.00 72 1016.7
20190122171601 58 360 0.0 0.0 0.00 0.00 0.00 70 1016.6
20190122170116 58 360 0.0 0.0 0.00 0.00 0.00 70 1016.5
20190122164650 58 360 0.0 0.0 0.00 0.00 0.00 72 1016.4
20190122163109 58 360 0.0 0.0 0.00 0.00 0.00 73 1016.4
20190122161550 58 360 2.0 4.0 0.00 0.00 0.00 73 1016.2
20190122160120 58 360 2.0 3.0 0.00 0.00 0.00 73 1016.2
20190122154601 59 360 2.0 3.0 0.00 0.00 0.00 73 1016.0
20190122153111 60 360 1.0 4.0 0.00 0.00 0.00 73 1015.9
20190122151546 60 360 0.0 3.0 0.00 0.00 0.00 73 1015.8
20190122150113 61 360 1.0 3.0 0.00 0.00 0.00 71 1015.8
20190122144536 61 360 2.0 3.0 0.00 0.00 0.00 69 1015.7
20190122143053 62 360 2.0 3.0 0.00 0.00 0.00 68 1015.5
20190122141558 63 360 1.0 4.0 0.00 0.00 0.00 67 1015.5
20190122140041 63 360 0.0 3.0 0.00 0.00 0.00 66 1015.4
20190122134538 64 360 1.0 4.0 0.00 0.00 0.00 64 1015.3
20190122133123 64 360 0.0 4.0 0.00 0.00 0.00 65 1015.3
20190122131611 64 360 2.0 4.0 0.00 0.00 0.00 65 1015.2
20190122130045 64 360 1.0 4.0 0.00 0.00 0.00 67 1015.3
20190122124548 63 360 2.0 4.0 0.00 0.00 0.00 69 1015.2
20190122123047 64 360 3.0 5.0 0.00 0.00 0.00 67 1015.2
20190122121529 63 360 2.0 4.0 0.00 0.00 0.00 68 1015.1
20190122120041 63 360 2.0 4.0 0.00 0.00 0.00 69 1015.3
20190122114544 63 360 3.0 5.0 0.00 0.00 0.00 71 1015.3
20190122113041 63 360 2.0 5.0 0.00 0.00 0.00 69 1015.2
20190122111527 63 360 2.0 4.0 0.00 0.00 0.00 69 1015.4
20190122110026 63 360 2.0 5.0 0.00 0.00 0.00 69 1015.5
20190122104525 63 360 1.0 8.0 0.00 0.00 0.00 72 1015.5
20190122103018 63 360 3.0 5.0 0.00 0.00 0.00 72 1015.6
20190122101532 62 360 3.0 5.0 0.00 0.00 0.00 72 1015.7
20190122100044 62 360 3.0 6.0 0.00 0.00 0.00 72 1015.8
20190122094528 62 360 3.0 8.0 0.00 0.00 0.00 71 1016.1
20190122093055 62 360 2.0 6.0 0.00 0.00 0.00 72 1016.2
20190122091523 62 360 3.0 9.0 0.00 0.00 0.00 72 1016.3
20190122090017 62 360 2.0 6.0 0.00 0.00 0.00 72 1016.3
20190122084509 61 360 2.0 4.0 0.00 0.00 0.00 71 1016.4
20190122083009 61 360 2.0 5.0 0.00 0.00 0.00 72 1016.4
20190122081510 61 360 2.0 5.0 0.00 0.00 0.00 74 1016.4
20190122080206 59 360 1.0 3.0 0.00 0.00 0.00 74 1016.3
20190122074715 58 360 1.0 4.0 0.00 0.00 0.00 73 1016.3
20190122073144 57 360 2.0 3.0 0.00 0.00 0.00 71 1016.2
20190122071625 56 360 2.0 4.0 0.00 0.00 0.00 69 1016.0
20190122070153 55 360 0.0 3.0 0.00 0.00 0.00 70 1016.0
20190122064625 53 360 0.0 3.0 0.00 0.00 0.00 70 1015.9
20190122063119 52 360 0.0 4.0 0.00 0.00 0.00 71 1015.8
20190122061719 52 360 0.0 4.0 0.00 0.00 0.00 72 1015.6
20190122060037 51 360 0.0 0.0 0.00 0.00 0.00 73 1015.5
20190122054559 50 360 0.0 1.0 0.00 0.00 0.00 73 1015.4
20190122053102 50 360 0.0 1.0 0.00 0.00 0.00 73 1015.4
20190122051639 50 360 0.0 2.0 0.00 0.00 0.00 74 1015.4
20190122050050 49 360 1.0 3.0 0.00 0.00 0.00 75 1015.1
20190122044545 49 360 1.0 3.0 0.00 0.00 0.00 76 1015.0
20190122043142 49 360 1.0 3.0 0.00 0.00 0.00 77 1015.0
20190122041559 49 360 2.0 3.0 0.00 0.00 0.00 78 1015.1
20190122040129 48 360 1.0 4.0 0.00 0.00 0.00 80 1015.1
20190122034605 47 360 1.0 4.0 0.00 0.00 0.00 82 1015.0
20190122033039 47 360 2.0 3.0 0.00 0.00 0.00 83 1015.0
20190122031557 47 360 0.0 2.0 0.00 0.00 0.00 84 1015.0
20190122030131 47 360 1.0 2.0 0.00 0.00 0.00 84 1014.9